This demonstration page uses our WeatherBlox Daily Observations layout. Learn more.

Left ArrowRight Arrow

39.92423, -83.80882

Hourly Observations for February 23, 2021

Temp ( °F °C ) Dew Point ( °F °C ) Humidity (%) Winds ( mph kmh ) Pressure ( in mb ) Visibility ( mi km ) Precip ( " mm )
12:56 am 00:56 Cloudy 35 1.7 30 -1.1 82 82 SW 17 28 29.81 1009 10 16 0.00 0.00
1:56 am 01:56 Cloudy 36 2.2 30 -1.1 79 79 SW 18 30 29.78 1008 10 16 0.00 0.00
2:56 am 02:56 Cloudy 37 2.8 30 -1.1 76 76 SW 16 26 29.74 1007 10 16 0.00 0.00
3:56 am 03:56 Mostly Cloudy 38 3.3 29 -1.7 70 70 SW 18 30 29.71 1006 10 16 0.00 0.00
4:56 am 04:56 Mostly Cloudy 39 3.9 29 -1.7 67 67 WSW 17 28 29.71 1006 10 16 0.00 0.00
5:56 am 05:56 Cloudy with Light Rain 39 3.9 30 -1.1 70 70 WSW 14 22 29.73 1007 10 16 0.00 0.00
6:56 am 06:56 Cloudy 39 3.9 30 -1.1 70 70 WSW 13 20 29.73 1007 10 16 0.00 0.00
7:56 am 07:56 Cloudy 39 3.9 31 -0.6 73 73 WSW 15 24 29.77 1008 10 16 0.00 0.00
8:56 am 08:56 Sunny 40 4.4 31 -0.6 70 70 WSW 17 28 29.78 1009 10 16 0.00 0.00
9:56 am 09:56 Partly Cloudy 41 5 32 0 70 70 W 15 24 29.82 1010 10 16 0.00 0.00
10:56 am 10:56 Sunny 42 5.6 33 0.6 71 71 W 17 28 29.84 1011 10 16 0.00 0.00
11:56 am 11:56 Mostly Sunny 43 6.1 33 0.6 68 68 WNW 21 33 29.88 1012 10 16 0.00 0.00
12:56 pm 12:56 Sunny 43 6.1 33 0.6 68 68 WNW 21 33 29.90 1012 10 16 0.00 0.00
1:56 pm 13:56 Sunny 43 6.1 33 0.6 68 68 W 14 22 29.90 1013 10 16 0.00 0.00
2:56 pm 14:56 Sunny 45 7.2 33 0.6 63 63 W 13 20 29.92 1013 10 16 0.00 0.00
3:56 pm 15:56 Sunny 44 6.7 33 0.6 65 65 WNW 15 24 29.95 1014 10 16 0.00 0.00
4:56 pm 16:56 Sunny 44 6.7 32 0 63 63 W 10 17 29.96 1014 10 16 0.00 0.00
5:56 pm 17:56 Sunny 43 6.1 32 0 65 65 WSW 6 9 29.97 1015 10 16 0.00 0.00
6:56 pm 18:56 Clear 40 4.4 32 0 73 73 WSW 8 13 29.99 1016 10 16 0.00 0.00
7:56 pm 19:56 Clear 37 2.8 32 0 82 82 SSW 5 7 30.02 1017 10 16 0.00 0.00
8:56 pm 20:56 Clear 32 0 30 -1.1 92 92 SE 3 6 30.02 1017 10 16 0.00 0.00
9:56 pm 21:56 Clear 32 0 28 -2.2 85 85 SE 6 9 30.03 1017 10 16 0.00 0.00
10:56 pm 22:56 Clear 34 1.1 29 -1.7 82 82 SSE 7 11 30.01 1016 10 16 0.00 0.00
11:56 pm 23:56 Clear 35 1.7 29 -1.7 78 78 SSE 7 11 30.00 1016 10 16 0.00 0.00

Powered by AerisWeather